This is the latest recevied weather packets stored in our database for station/object K7SKM. If no packets are shown the sender has not sent any weather packets the latest 10 day(s).
| Time | Temp. | Humidity | Pressure | Rain* | Wind** | Luminosity | Snow |
|---|---|---|---|---|---|---|---|
| 1777824592 | 18.89° C | 63% | 1018.7 hPa | 0 mm | - | 231 W/m² | - |
| 1777824290 | 18.33° C | 65% | 1018.8 hPa | 0 mm | - | 224 W/m² | - |
| 1777823985 | 17.22° C | 67% | 1018.7 hPa | 0 mm | - | 217 W/m² | - |
| 1777823682 | 17.22° C | 69% | 1018.8 hPa | 0 mm | - | 211 W/m² | - |
| 1777823378 | 16.67° C | 70% | 1018.7 hPa | 0 mm | - | 201 W/m² | - |
| 1777823077 | 16.11° C | 74% | 1018.6 hPa | 0 mm | - | 126 W/m² | - |
| 1777822774 | 15.56° C | 74% | 1018.7 hPa | 0 mm | - | 48 W/m² | - |
| 1777822472 | 15.56° C | 76% | 1018.6 hPa | 0 mm | - | 40 W/m² | - |
| 1777822170 | 15° C | 77% | 1018.7 hPa | 0 mm | - | 38 W/m² | - |
| 1777821867 | 15° C | 78% | 1018.6 hPa | 0 mm | - | 38 W/m² | - |
| 1777821564 | 15° C | 78% | 1018.7 hPa | 0 mm | - | 37 W/m² | - |
| 1777821262 | 14.44° C | 78% | 1018.8 hPa | 0 mm | - | 37 W/m² | - |
| 1777820958 | 14.44° C | 79% | 1019 hPa | 0 mm | - | 37 W/m² | - |
| 1777820655 | 14.44° C | 79% | 1019.1 hPa | 0 mm | - | 37 W/m² | - |
| 1777820351 | 14.44° C | 79% | 1019 hPa | 0 mm | - | 37 W/m² | - |
| 1777820049 | 13.89° C | 79% | 1018.9 hPa | 0 mm | - | 92 W/m² | - |
| 1777819746 | 13.89° C | 80% | 1018.7 hPa | 0 mm | - | 83 W/m² | - |
| 1777819444 | 13.89° C | 79% | 1018.7 hPa | 0 mm | - | 155 W/m² | - |
| 1777819141 | 13.89° C | 80% | 1019 hPa | 0 mm | - | 152 W/m² | - |
| 1777818838 | 13.89° C | 81% | 1018.7 hPa | 0 mm | - | 148 W/m² | - |
| 1777818534 | 13.33° C | 82% | 1018.8 hPa | 0 mm | - | 144 W/m² | - |
| 1777818232 | 12.78° C | 82% | 1018.9 hPa | 0 mm | - | 141 W/m² | - |
| 1777817927 | 12.78° C | 84% | 1018.8 hPa | 0 mm | - | 135 W/m² | - |
| 1777817625 | 12.22° C | 85% | 1018.7 hPa | 0 mm | - | 131 W/m² | - |
| 1777817321 | 12.22° C | 85% | 1018.7 hPa | 0 mm | - | 124 W/m² | - |
* Rain latest hour (hover to see other rain measurements)
** Current wind speed in m/s (hover to see current wind gust speed)